Regional Weather Roundup
Issued by NWS Cleveland, OH

Home | Current Version | Previous Version | Text Only | Print | Product List | Glossary Off
Versions: 1 2 3 4 5 6 7 8 9 10 11 12 13 14 15 16 17 18 19 20 21 22 23 24 25 26 27 28 29 30 31 32 33 34 35 36 37 38 39 40 41 42 43 44 45 46 47 48 49 50

502
ASUS41 KCLE 180100
RWRCLE
OHIO REGIONAL WEATHER ROUNDUP
NATIONAL WEATHER SERVICE WILMINGTON, OH
900 PM EDT THU AUG 17 2017

NOTE: "FAIR" INDICATES FEW OR NO CLOUDS BELOW 12,000 FEET WITH NO
SIGNIFICANT WEATHER AND/OR OBSTRUCTIONS TO VISIBILITY.

OHZ001>008-015>018-024>027-034-035-043-044-180200-
   NORTHWEST OHIO

CITY           SKY/WX    TMP DP  RH WIND       PRES   REMARKS
DEFIANCE       FAIR      79  66  64 SW8G20    29.77R
FINDLAY        FAIR      79  66  64 SW12      29.79R
TOLEDO EXPRESS FAIR      78  69  73 SW9       29.75R
TOLEDO EXEC    FAIR      80  69  69 SW9       29.76R
LIMA           FAIR      77  69  76 SW6       29.82R
$$

OHZ009>014-019>023-028>033-038-089-180200-
   NORTHEAST OHIO

CITY           SKY/WX    TMP DP  RH WIND       PRES   REMARKS
CLE-HOPKINS    FAIR      81  72  74 S10       29.80R
CLE-LAKEFRONT  FAIR      80  72  76 S12       29.76R
CUY CO. ARPT   NOT AVBL
LORAIN-ELYRIA  FAIR      77  68  73 SW10      29.79R
ASHTABULA      MOCLDY    74  73  97 SE7       29.82S
AKRON-CANTON   MOCLDY    78  71  79 SW10      29.84R
WOOSTER        NOT AVBL
MANSFIELD      FAIR      75  72  90 S9        29.84R
YOUNGSTOWN     CLOUDY    76  73  91 S9        29.84R
$$

OHZ042-051>053-060>062-070>072-077>081-180200-
  SOUTHWEST OHIO

CITY           SKY/WX    TMP DP  RH WIND       PRES   REMARKS
CINC-COVINGTON HVY RAIN  76  76 100 SW9       29.89R FOG
CINC-LUNKEN    LGT RAIN  78  76  93 SW14G21   29.87R
HAMILTON       FAIR      78  75  90 CALM      29.86S
DAYTON         NOT AVBL
WRIGHT-PAT AFB NOT AVBL
DAYTON GENERAL FAIR      75  71  87 S8        29.86R
WILMINGTON     MOCLDY    75  75 100 SW8       29.88R
$$

OHZ036-037-039>041-045>050-054>059-063>069-073>076-082>088-180200-
  CENTRAL AND SOUTHEAST OHIO

CITY           SKY/WX    TMP DP  RH WIND       PRES   REMARKS
COLUMBUS       CLOUDY    75  72  90 S6        29.85R
OSU AIRPORT    CLOUDY    76  75  97 SW7       29.85R
BOLTON FIELD   NOT AVBL
RICKENBACK AFB NOT AVBL
NEWARK         CLOUDY    73  71  93 SW5       29.86R
MARION         FAIR      76  71  85 S12       29.84R
LANCASTER      MOCLDY    73  32  22 S5        29.87R
ZANESVILLE     FAIR      72  70  93 S7        29.87S
NEW PHILLY     MOCLDY    76  74  93 VRB6      29.86S
$$




USA.gov is the U.S. government's official web portal to all federal, state and local government web resources and services.